| time (UTC) | temp C | wind direction | speed KPH | gust KPH | rain 1hr cm | rain 24hr cm | rain mn cm | humidity % | barometer mb |
| 20260901080204 | 17 | 24 | 0.0 | 4.8 | 0.00 | 0.00 | 0.00 | 77 | 1008.1 |
| 20260901073704 | 17 | 24 | 1.6 | 4.8 | 0.00 | 0.00 | 0.00 | 76 | 1008.1 |
| 20260901073204 | 17 | 26 | 1.6 | 4.8 | 0.00 | 0.00 | 0.00 | 76 | 1008.1 |
| 20260901070205 | 17 | 21 | 0.0 | 3.2 | 0.00 | 0.00 | 0.00 | 75 | 1008.1 |
| 20260901063204 | 17 | 21 | 0.0 | 4.8 | 0.00 | 0.00 | 0.00 | 74 | 1008.0 |
| 20260901060704 | 18 | 21 | 0.0 | 1.6 | 0.00 | 0.00 | 0.00 | 73 | 1008.4 |
| 20260901060204 | 18 | 21 | 1.6 | 4.8 | 0.00 | 0.00 | 0.00 | 73 | 1008.3 |
| 20260901053704 | 18 | 5 | 1.6 | 4.8 | 0.00 | 0.00 | 0.00 | 75 | 1008.4 |
| 20260901053205 | 18 | 11 | 1.6 | 8.0 | 0.00 | 0.00 | 0.00 | 74 | 1008.4 |
| 20260901050704 | 19 | 326 | 3.2 | 4.8 | 0.00 | 0.00 | 0.00 | 73 | 1008.4 |
| 20260901050204 | 18 | 351 | 0.0 | 4.8 | 0.00 | 0.00 | 0.00 | 74 | 1008.4 |
| 20260901043704 | 19 | 0 | 1.6 | 4.8 | 0.00 | 0.00 | 0.00 | 71 | 1008.5 |
| 20260901040704 | 20 | 341 | 1.6 | 4.8 | 0.00 | 0.00 | 0.00 | 70 | 1008.4 |
| 20260901040204 | 20 | 18 | 3.2 | 9.7 | 0.00 | 0.00 | 0.00 | 69 | 1008.3 |
| 20260901033204 | 20 | 326 | 3.2 | 9.7 | 0.00 | 0.00 | 0.00 | 69 | 1008.0 |
| 20260901030704 | 21 | 337 | 3.2 | 8.0 | 0.00 | 0.00 | 0.00 | 66 | 1007.8 |
| 20260901030204 | 21 | 334 | 1.6 | 11.3 | 0.00 | 0.00 | 0.00 | 65 | 1007.8 |
| 20260901023204 | 21 | 5 | 1.6 | 9.7 | 0.00 | 0.00 | 0.00 | 62 | 1007.9 |
| 20260901020703 | 22 | 335 | 3.2 | 12.9 | 0.00 | 0.00 | 0.00 | 60 | 1007.9 |
| 20260901020203 | 22 | 337 | 3.2 | 12.9 | 0.00 | 0.00 | 0.00 | 61 | 1007.9 |
| 20260901013703 | 22 | 335 | 1.6 | 8.0 | 0.00 | 0.00 | 0.00 | 59 | 1007.9 |
| 20260901013204 | 22 | 275 | 6.4 | 14.5 | 0.00 | 0.00 | 0.00 | 58 | 1007.9 |
| 20260901010703 | 23 | 325 | 3.2 | 16.1 | 0.00 | 0.00 | 0.00 | 55 | 1007.9 |
| 20260901010204 | 24 | 336 | 6.4 | 16.1 | 0.00 | 0.00 | 0.00 | 56 | 1007.9 |
| 20260901003705 | 25 | 276 | 3.2 | 9.7 | 0.00 | 0.00 | 0.00 | 51 | 1007.9 |
| 20260901000704 | 26 | 351 | 4.8 | 12.9 | 0.00 | 0.00 | 0.00 | 50 | 1008.1 |
| 20260901000204 | 26 | 315 | 4.8 | 16.1 | 0.00 | 0.00 | 0.00 | 49 | 1008.1 |
| 20260831230204 | 25 | 310 | 4.8 | 16.1 | 0.00 | 0.00 | 0.00 | 52 | 1008.7 |
| 20260831223703 | 26 | 348 | 6.4 | 19.3 | 0.00 | 0.00 | 0.00 | 49 | 1009.0 |
| 20260831220704 | 25 | 308 | 6.4 | 12.9 | 0.00 | 0.00 | 0.00 | 52 | 1009.4 |
| 20260831213704 | 24 | 269 | 6.4 | 16.1 | 0.00 | 0.00 | 0.00 | 54 | 1009.6 |
| 20260831213204 | 23 | 276 | 9.7 | 19.3 | 0.00 | 0.00 | 0.00 | 54 | 1009.7 |
| 20260831210704 | 24 | 325 | 3.2 | 14.5 | 0.00 | 0.00 | 0.00 | 55 | 1010.0 |
| 20260831210204 | 23 | 299 | 4.8 | 19.3 | 0.00 | 0.00 | 0.00 | 55 | 1010.0 |
| 20260831203704 | 23 | 290 | 4.8 | 16.1 | 0.00 | 0.00 | 0.00 | 56 | 1010.4 |
| 20260831203204 | 23 | 314 | 8.0 | 19.3 | 0.00 | 0.00 | 0.00 | 56 | 1010.5 |
| 20260831200704 | 23 | 287 | 4.8 | 14.5 | 0.00 | 0.00 | 0.00 | 59 | 1010.7 |
| 20260831200204 | 22 | 4 | 8.0 | 19.3 | 0.00 | 0.00 | 0.00 | 60 | 1010.7 |
| 20260831193203 | 22 | 310 | 6.4 | 19.3 | 0.00 | 0.00 | 0.00 | 62 | 1011.2 |
| 20260831190704 | 21 | 266 | 4.8 | 16.1 | 0.00 | 0.00 | 0.00 | 62 | 1011.6 |
| 20260831190204 | 21 | 43 | 4.8 | 19.3 | 0.00 | 0.00 | 0.00 | 64 | 1011.7 |
| 20260831183703 | 20 | 352 | 8.0 | 16.1 | 0.00 | 0.00 | 0.00 | 67 | 1012.0 |
| 20260831183204 | 20 | 309 | 1.6 | 19.3 | 0.00 | 0.00 | 0.00 | 68 | 1012.1 |
| 20260831180704 | 18 | 332 | 4.8 | 12.9 | 0.00 | 0.00 | 0.00 | 71 | 1012.4 |
| 20260831180203 | 18 | 297 | 3.2 | 14.5 | 0.00 | 0.00 | 0.00 | 71 | 1012.4 |
| 20260831173704 | 17 | 302 | 6.4 | 19.3 | 0.00 | 0.00 | 0.00 | 73 | 1012.7 |
| 20260831170203 | 16 | 350 | 4.8 | 11.3 | 0.00 | 0.00 | 0.00 | 78 | 1012.9 |
| 20260831163704 | 16 | 283 | 3.2 | 8.0 | 0.00 | 0.00 | 0.00 | 79 | 1013.2 |
| 20260831163203 | 16 | 346 | 1.6 | 9.7 | 0.00 | 0.00 | 0.00 | 80 | 1013.3 |
| 20260831160704 | 15 | 316 | 3.2 | 8.0 | 0.00 | 0.00 | 0.00 | 81 | 1013.5 |
| 20260831160204 | 15 | 332 | 3.2 | 9.7 | 0.00 | 0.00 | 0.00 | 82 | 1013.5 |
| 20260831153704 | 15 | 345 | 1.6 | 4.8 | 0.00 | 0.00 | 0.00 | 83 | 1013.7 |
| 20260831153204 | 15 | 19 | 4.8 | 11.3 | 0.00 | 0.00 | 0.00 | 84 | 1013.8 |
| 20260831150704 | 14 | 25 | 3.2 | 4.8 | 0.00 | 0.00 | 0.00 | 85 | 1013.8 |
| 20260831150203 | 14 | 10 | 1.6 | 4.8 | 0.00 | 0.00 | 0.00 | 85 | 1013.8 |
| 20260831143704 | 13 | 26 | 1.6 | 3.2 | 0.00 | 0.00 | 0.00 | 86 | 1013.7 |
| 20260831143204 | 13 | 26 | 1.6 | 3.2 | 0.00 | 0.00 | 0.00 | 86 | 1013.6 |
| 20260831140704 | 13 | 26 | 0.0 | 0.0 | 0.00 | 0.00 | 0.00 | 87 | 1013.7 |
| 20260831140204 | 13 | 26 | 0.0 | 3.2 | 0.00 | 0.00 | 0.00 | 87 | 1013.7 |
| 20260831133703 | 13 | 26 | 1.6 | 3.2 | 0.00 | 0.00 | 0.00 | 87 | 1013.5 |
| 20260831133203 | 13 | 24 | 0.0 | 4.8 | 0.00 | 0.00 | 0.00 | 87 | 1013.5 |
| 20260831130704 | 13 | 14 | 1.6 | 4.8 | 0.00 | 0.00 | 0.00 | 86 | 1013.6 |
| 20260831130204 | 13 | 355 | 3.2 | 4.8 | 0.00 | 0.00 | 0.00 | 86 | 1013.7 |
| 20260831123704 | 14 | 15 | 1.6 | 4.8 | 0.00 | 0.00 | 0.00 | 86 | 1013.8 |
| 20260831123204 | 14 | 338 | 3.2 | 14.5 | 0.00 | 0.00 | 0.00 | 86 | 1013.8 |
| 20260831120704 | 14 | 353 | 3.2 | 8.0 | 0.00 | 0.00 | 0.00 | 85 | 1014.0 |
| 20260831120204 | 14 | 347 | 3.2 | 11.3 | 0.00 | 0.00 | 0.00 | 85 | 1014.0 |
| 20260831113703 | 14 | 0 | 1.6 | 4.8 | 0.00 | 0.00 | 0.00 | 85 | 1014.3 |
| 20260831113203 | 14 | 0 | 3.2 | 4.8 | 0.00 | 0.00 | 0.00 | 84 | 1014.3 |
| 20260831110704 | 14 | 355 | 1.6 | 4.8 | 0.00 | 0.00 | 0.00 | 83 | 1014.4 |
| 20260831110203 | 14 | 355 | 1.6 | 8.0 | 0.00 | 0.00 | 0.00 | 83 | 1014.5 |
| 20260831103704 | 15 | 12 | 3.2 | 4.8 | 0.00 | 0.00 | 0.00 | 82 | 1014.6 |
| 20260831103204 | 15 | 18 | 4.8 | 9.7 | 0.00 | 0.00 | 0.00 | 82 | 1014.7 |
| 20260831100704 | 15 | 25 | 4.8 | 9.7 | 0.00 | 0.00 | 0.00 | 81 | 1014.8 |
| 20260831093704 | 15 | 22 | 4.8 | 11.3 | 0.00 | 0.00 | 0.00 | 80 | 1015.1 |
| 20260831093204 | 15 | 5 | 3.2 | 8.0 | 0.00 | 0.00 | 0.00 | 80 | 1015.2 |
| 20260831090704 | 15 | 24 | 4.8 | 8.0 | 0.00 | 0.00 | 0.00 | 80 | 1015.5 |
| 20260831083703 | 16 | 30 | 3.2 | 8.0 | 0.00 | 0.00 | 0.00 | 80 | 1015.5 |
| 20260831083204 | 16 | 31 | 3.2 | 12.9 | 0.00 | 0.00 | 0.00 | 80 | 1015.5 |